User: anonymous   Login
Location: Unspecified
(0.0000°N, 0.0000°E)
Time: 20:47:10
(UTC+00:00)
Language:

KANOPUS-V-IK - Orbit

View from above orbital plane
View from above orbital plane
View from above satellite
View from above satellite

Ground track
Ground track

The orbit data is extracted from the following two-line orbital elements,

1 42825U 17042A   18141.50771828  .00000159  00000-0  10827-4 0  9995
2 42825  97.4258  50.9407 0001801  81.3772 278.7666 15.18847614 47256
Epoch (UTC): 21 May 2018 12:11:06
Eccentricity: 0.0001801
inclination: 97.4258°
perigee height: 508 km
apogee height: 510 km
right ascension of ascending node: 50.9407°
argument of perigee: 81.3772°
revolutions per day: 15.18847614
mean anomaly at epoch: 278.7666°
orbit number at epoch: 4725

The dashed part of the orbit path shows where the satellite is in the earth's shadow,  

DLR